Theta_e
270 270 269 270 271 271 270 270 270 270 270 271 271 271 271 271 271 271 270 270 270 270 270 270 271 272 273 273 274 275 275 275 276 276 276 276 275 275 274 274 274 274
269 269 270 269 270 271 270 270 270 270 270 270 269 269 269 270 269 269 269 268 268 268 268 268 268 269 270 271 272 273 274 274 274 276 275 275 275 275 274 274 274 274
268 268 268 268 269 269 269 270 270 270 269 268 268 268 268 268 268 268 267 267 266 266 266 266 266 267 267 269 270 271 272 273 273 274 275 274 275 274 275 274 274 274
268 268 268 268 269 269 270 269 268 268 267 267 266 267 267 267 267 267 266 266 265 264 264 265 265 265 266 266 267 268 270 272 273 274 274 274 274 275 275 275 275 274
267 267 268 268 269 269 269 268 266 266 266 266 266 266 266 266 266 265 265 264 264 263 263 263 264 264 265 265 265 266 268 270 272 273 273 274 274 275 275 275 274 274
267 267 268 268 269 268 267 266 266 266 265 265 265 265 265 265 265 264 263 263 262 262 262 262 263 263 263 264 264 265 265 266 268 270 272 272 274 275 275 275 274 274
266 267 267 268 268 267 266 265 265 265 264 264 264 264 264 264 264 263 262 262 261 261 261 261 262 262 263 263 263 263 264 264 265 266 267 268 271 273 274 274 274 273
266 267 267 268 266 266 265 264 264 264 263 263 262 263 263 263 262 262 262 261 261 261 261 261 261 261 262 263 262 262 262 262 262 263 264 265 269 270 272 273 274 273
266 266 267 266 265 265 264 263 263 263 263 262 262 262 262 262 261 261 261 261 260 260 260 260 261 261 261 261 261 260 260 260 261 261 262 263 264 267 270 272 273 273
265 265 266 265 264 264 263 263 262 262 262 262 261 261 261 261 261 260 260 260 259 259 260 260 260 260 260 260 260 260 260 260 261 261 262 262 263 264 265 268 270 272
264 265 265 264 263 263 262 262 262 261 261 261 261 260 260 260 260 260 259 259 259 259 259 259 259 259 259 260 260 261 261 261 261 262 262 262 263 263 264 265 267 270
263 264 264 263 262 262 261 261 261 261 260 260 260 259 259 259 259 259 259 258 258 258 258 258 259 259 259 259 260 260 260 260 260 261 262 262 263 263 263 263 265 267
262 263 263 262 262 261 261 261 260 260 260 259 260 259 258 258 258 258 258 258 258 258 258 258 258 258 258 259 259 259 259 259 259 259 260 260 261 262 263 263 264 265
262 263 262 262 261 261 260 260 260 259 259 259 259 258 258 258 257 257 258 258 257 257 258 258 258 258 258 258 258 258 258 258 259 259 260 261 262 263 264 265 266 267
262 262 261 261 261 260 259 259 259 259 258 258 258 257 257 257 257 257 257 256 257 257 257 257 257 257 257 257 257 258 259 260 260 261 262 262 263 264 265 266 266 266
261 261 260 260 259 259 258 258 258 258 258 257 257 257 257 257 256 256 256 256 256 256 256 256 256 256 258 263 265 262 262 262 263 263 263 263 263 264 265 267 267 268
260 259 259 259 259 258 258 258 257 257 257 256 256 256 256 256 256 255 255 255 255 255 255 255 256 256 263 266 267 268 265 263 263 263 264 264 264 264 264 265 266 268
259 259 258 258 258 257 257 257 256 256 255 255 255 255 255 255 254 254 255 255 255 255 255 255 255 260 265 266 267 268 265 262 263 263 263 264 264 265 265 265 266 267
258 258 257 257 257 256 256 256 255 255 254 254 254 254 254 254 254 254 254 254 254 254 254 255 255 261 264 266 267 264 264 263 262 263 263 263 264 265 265 266 266 266
258 257 256 256 256 256 255 255 254 254 254 254 254 254 254 254 253 254 254 254 254 254 254 255 255 260 264 266 263 262 263 265 262 263 264 265 265 265 266 266 267 267
257 256 255 255 255 255 254 254 254 253 254 254 253 253 253 253 253 253 253 254 254 254 254 254 255 263 264 263 263 267 264 267 264 264 265 265 266 266 266 266 267 267
256 255 255 254 254 254 253 253 253 253 253 253 253 253 253 254 253 254 253 253 254 254 254 254 255 263 260 260 262 263 266 263 263 263 263 264 264 265 266 266 267 267
256 255 254 254 254 253 253 253 253 253 253 253 252 253 253 253 253 253 254 253 254 254 254 254 255 260 263 259 263 265 265 261 263 263 264 264 264 265 266 267 267 267
255 254 254 253 253 252 252 253 253 253 252 253 252 252 252 252 253 253 253 254 254 254 254 254 255 259 265 264 263 265 264 262 262 263 263 264 264 265 266 267 268 269
255 254 253 253 252 252 252 252 252 252 252 253 252 252 252 253 253 253 253 254 254 254 256 256 256 259 265 265 264 263 263 261 262 262 263 264 264 265 266 267 267 269
254 253 253 252 252 252 252 252 252 252 252 252 252 252 252 252 253 253 252 253 254 255 255 256 257 258 260 266 266 265 265 263 262 263 263 263 264 264 264 265 267 267
Wind_Speed
10 10 11 10 9 9 9 10 8 8 8 8 10 12 12 12 13 14 14 12 13 12 12 13 13 14 12 13 14 14 13 13 13 11 12 13 13 13 13 13 12 12
11 11 10 9 8 8 8 8 8 7 9 10 11 12 12 12 12 12 13 13 13 13 14 13 13 14 15 13 12 14 13 13 14 10 12 14 14 13 14 14 13 13
13 12 12 11 9 10 10 8 6 8 9 11 12 12 12 10 12 10 10 12 11 11 12 12 13 13 13 14 15 14 13 14 14 12 12 14 13 13 13 13 12 14
13 12 12 11 10 10 9 6 8 8 11 12 13 12 11 12 12 11 11 13 13 14 13 13 14 13 13 15 15 14 16 15 14 13 13 12 12 12 14 12 12 13
13 13 12 11 10 9 7 9 11 11 12 12 12 12 12 13 12 12 10 13 13 14 13 14 13 13 14 13 13 14 15 14 15 14 13 13 10 11 12 12 13 14
12 11 11 11 9 7 8 9 11 12 12 13 14 12 13 12 11 11 11 13 14 14 15 14 13 13 13 14 13 12 13 14 15 16 17 16 14 11 11 12 13 14
13 12 12 11 6 9 9 10 10 11 12 14 13 13 13 13 12 11 12 13 15 15 15 15 14 15 12 12 12 13 12 12 15 15 17 17 16 14 14 11 13 14
13 11 11 7 7 10 9 9 11 11 13 13 13 12 12 12 14 10 12 13 16 16 16 15 15 15 13 11 13 13 15 13 13 16 16 18 15 16 14 11 12 14
12 12 10 7 8 9 9 12 12 12 12 12 13 12 10 10 11 13 13 14 16 16 16 15 15 14 14 14 12 14 16 16 16 15 16 16 18 18 17 14 13 15
13 14 8 8 9 10 9 13 13 12 12 11 12 11 13 12 11 15 14 17 16 16 15 15 16 15 15 13 14 13 13 14 13 14 14 14 16 14 16 17 18 16
14 13 7 9 10 10 13 15 14 15 13 13 12 12 11 10 15 13 15 15 15 16 17 16 16 16 17 16 15 15 16 16 14 13 13 13 14 15 18 17 20 19
13 12 8 9 11 13 15 15 13 14 14 12 12 16 14 13 14 15 14 16 17 17 17 17 17 17 17 18 18 17 17 17 18 18 16 14 15 17 14 17 16 20
12 13 11 12 13 14 13 11 13 15 13 13 13 13 13 15 12 14 15 15 17 17 17 18 18 17 17 17 18 19 17 16 16 18 20 18 16 15 16 17 16 19
12 12 11 12 12 13 12 14 15 13 13 14 12 14 13 14 13 15 15 14 16 17 17 16 17 17 16 14 14 13 15 17 17 19 20 20 20 17 15 15 18 17
12 11 12 13 15 13 16 17 13 14 15 13 13 12 12 12 13 16 12 15 13 12 14 13 12 14 12 13 14 15 16 17 18 18 20 21 20 20 16 16 15 15
13 14 14 14 14 16 17 15 16 17 15 14 13 12 13 12 12 13 13 14 15 14 12 12 12 11 19 33 30 22 20 18 19 20 20 19 19 18 18 16 16 15
13 14 15 15 17 16 14 16 20 14 13 14 12 12 13 13 14 14 14 12 14 16 15 12 12 12 30 32 34 35 26 21 21 20 20 19 18 17 16 17 16 17
14 12 13 13 13 15 17 17 13 12 13 14 14 15 12 13 13 14 14 13 13 13 15 14 13 23 33 33 34 36 29 21 17 17 17 17 18 17 15 15 15 16
12 13 12 12 13 13 11 12 12 15 14 14 14 14 13 14 14 16 15 14 14 15 16 16 14 27 33 35 34 33 36 29 18 18 17 17 16 17 17 17 15 14
11 12 12 14 12 13 12 12 13 12 13 11 13 12 14 14 14 14 16 15 14 15 15 16 14 25 34 35 28 26 35 33 18 18 15 16 18 17 15 15 17 16
11 12 13 11 12 13 13 14 13 13 13 11 11 13 15 12 14 14 15 15 15 14 14 16 17 31 36 28 35 30 32 32 17 14 14 14 13 15 17 15 14 15
12 14 13 13 13 13 13 15 14 13 12 15 12 12 10 12 11 13 14 16 17 16 16 17 18 33 28 32 32 32 35 21 16 15 13 12 12 13 12 13 13 13
14 13 14 14 12 14 14 14 15 14 15 10 13 14 13 13 13 13 13 14 16 16 16 17 18 29 29 24 31 34 20 17 16 14 13 12 14 13 13 13 14 14
13 13 15 14 15 14 15 15 13 13 10 12 13 14 15 14 13 13 14 15 15 16 17 18 19 27 37 33 26 37 30 21 14 12 13 14 13 14 13 13 16 26
12 13 12 15 14 14 13 14 13 14 13 13 11 11 14 13 13 13 14 14 15 16 23 23 19 24 35 36 32 33 29 18 15 12 13 12 12 13 13 12 12 14
11 13 14 13 14 14 14 13 12 13 13 13 14 13 12 13 11 14 15 15 16 16 17 19 19 20 24 38 29 26 31 22 14 12 11 12 11 12 11 11 10 10
Wind_Direction
355 349 339 332 331 335 333 327 323 324 326 338 348 350 345 339 342 340 336 335 331 328 328 326 324 321 318 315 311 307 299 286 277 268 258 251 247 241 239 235 229 227
348 341 335 328 323 328 323 318 320 338 353 354 346 336 333 332 333 331 332 330 329 329 328 323 319 316 313 308 304 303 300 296 286 278 268 259 254 249 245 240 235 234
344 341 337 330 326 325 322 322 347 2 353 345 341 336 329 332 325 328 328 328 326 323 319 316 313 312 310 309 309 303 297 294 288 280 270 264 260 253 249 243 238 235
340 338 330 325 323 322 321 351 360 354 347 344 341 332 327 322 320 320 325 326 321 317 316 313 311 308 307 308 307 301 298 293 289 286 276 269 261 256 253 246 241 238
334 331 329 319 316 319 345 2 353 347 342 336 332 330 324 320 320 322 323 322 319 315 313 310 307 306 306 303 303 300 299 295 291 289 286 279 267 258 255 251 245 244
326 324 319 317 315 351 357 353 345 340 336 335 332 328 320 317 319 321 321 319 319 313 309 307 306 305 305 300 300 299 301 302 302 302 295 287 283 273 267 257 250 247
327 325 319 314 356 353 347 343 341 338 336 331 327 323 321 319 320 320 316 315 313 310 308 306 304 304 302 299 296 295 292 293 297 298 294 291 288 280 272 262 255 249
327 323 314 329 5 348 343 346 336 335 332 327 323 317 319 316 316 313 313 311 311 309 306 303 302 300 298 295 294 294 294 294 291 291 289 287 286 280 273 266 257 249
324 322 322 354 348 347 343 337 336 331 330 323 318 319 316 314 314 314 310 309 307 305 305 302 300 299 299 299 293 292 290 287 284 284 283 284 284 281 281 274 260 252
327 319 333 351 351 339 342 333 331 326 322 318 316 315 316 314 314 312 308 308 305 304 303 303 302 301 297 291 290 286 281 279 275 271 269 272 274 277 280 280 275 267
324 319 341 347 347 338 332 328 323 321 317 314 313 311 312 312 311 312 310 308 307 307 306 304 302 301 300 297 295 294 292 291 286 279 272 270 270 272 278 279 279 273
324 324 340 343 338 331 325 321 317 317 317 313 313 315 313 311 310 310 310 307 305 305 303 302 301 300 298 297 296 295 294 290 289 289 287 283 280 275 271 269 267 269
324 326 331 333 330 323 319 316 318 318 316 315 314 312 310 308 305 304 305 305 303 302 301 300 300 297 295 293 292 290 287 282 280 278 277 276 268 264 261 261 260 263
323 325 328 327 322 318 317 318 317 315 314 312 311 308 307 305 303 304 302 301 300 299 297 296 294 293 289 283 278 274 275 273 270 271 270 271 271 265 256 255 258 260
321 324 324 320 319 318 319 317 313 313 313 309 305 302 301 298 299 302 296 294 286 280 286 287 283 283 284 284 279 271 268 265 268 267 271 275 274 273 264 257 254 253
321 321 319 319 318 319 317 315 316 314 310 306 304 302 298 299 294 293 291 290 291 286 280 279 281 279 286 288 286 284 281 277 276 275 274 272 272 273 272 267 260 254
320 319 318 317 319 315 314 316 315 309 305 304 300 300 300 299 298 295 292 288 287 290 290 283 278 277 289 291 291 289 287 283 279 276 272 269 266 260 260 261 260 261
316 313 313 312 313 313 315 312 306 305 306 305 304 304 302 301 294 292 291 291 289 285 284 284 281 290 295 295 294 291 288 284 283 282 279 276 274 267 261 259 258 259
312 312 310 309 309 308 303 304 306 307 305 304 303 302 299 298 297 297 294 290 288 288 289 287 283 293 296 295 293 291 289 287 280 273 269 267 262 262 261 262 266 264
310 310 309 308 307 306 305 305 306 304 303 299 298 297 299 297 295 291 293 291 288 288 286 286 281 292 295 294 291 290 290 289 281 274 270 269 268 263 261 261 258 261
309 310 307 306 308 310 309 308 306 303 301 301 300 300 303 298 297 298 294 292 289 286 285 286 287 292 294 292 293 291 290 292 289 284 277 276 276 273 270 269 268 269
316 314 313 312 311 311 309 307 308 306 303 306 303 298 288 292 288 291 291 292 291 289 287 284 285 292 292 293 291 290 291 292 288 284 279 270 267 266 262 260 260 257
317 315 312 311 310 310 310 307 310 309 308 303 300 301 300 298 296 293 293 291 289 289 287 285 286 290 292 289 289 290 290 290 286 282 278 277 277 274 269 264 261 255
315 314 313 311 311 309 309 309 306 300 296 302 303 305 301 300 299 294 292 290 287 287 285 286 287 290 293 293 289 291 288 286 283 278 274 275 273 271 269 267 263 260
312 312 310 310 309 307 309 308 307 308 304 301 295 295 296 295 293 294 292 290 286 285 288 288 287 290 293 294 291 288 286 282 279 271 271 271 277 277 276 273 269 265
311 312 311 309 308 308 306 306 305 304 305 303 303 300 296 297 292 295 293 291 292 290 290 289 288 288 289 293 290 287 286 282 273 272 269 273 275 277 277 278 274 265